When you browse on this site, cookies collect data to enhance your experience and personalize the content and advertising you see.
Visit our Privacy Policy to learn more. By continuing to use the site, you agree to this use of cookies and data.
  • în România
  • Lista ţărilor
  • Pe 7 zile
  • Temperatura apei
  • Hartă satelitară
  • Meteo pe hartă
  • Widget-uri
  • user-avatar
    Intrare

    Meteo pe oră la La Palma

    Astăzi, 23 Mai, Joi

    Timp Temperatura Precipitaţii Vânt Presiune Umiditate
    00:00 +25°C° 0 mm 0 m/s 758 mmHg 91%
    01:00 +25°C° 0 mm 0 m/s 758 mmHg 91%
    02:00 +25°C° 0.1 mm 0 m/s 758 mmHg 91%
    03:00 +27°C° 0.1 mm 1 m/s 758 mmHg 92%
    04:00 +26°C° 0.1 mm 1 m/s 758 mmHg 92%
    05:00 +27°C° 0 mm 1 m/s 758 mmHg 91%
    06:00 +27°C° 0 mm 1 m/s 758 mmHg 89%
    07:00 +28°C° 0 mm 1 m/s 758 mmHg 87%
    08:00 +29°C° 0 mm 1 m/s 758 mmHg 80%
    09:00 +31°C° 0 mm 1 m/s 758 mmHg 72%
    10:00 +33°C° 0 mm 1 m/s 758 mmHg 64%
    11:00 +34°C° 0 mm 1 m/s 758 mmHg 59%
    12:00 +36°C° 0 mm 1 m/s 757 mmHg 53%
    13:00 +39°C° 0 mm 1 m/s 757 mmHg 48%
    14:00 +36°C° 0.7 mm 1 m/s 757 mmHg 57%
    15:00 +35°C° 0.7 mm 2 m/s 756 mmHg 67%
    16:00 +33°C° 0.7 mm 3 m/s 756 mmHg 77%
    17:00 +31°C° 0.7 mm 2 m/s 756 mmHg 82%
    18:00 +29°C° 0.7 mm 2 m/s 756 mmHg 88%
    19:00 +28°C° 0.7 mm 1 m/s 756 mmHg 93%
    20:00 +28°C° 0 mm 1 m/s 757 mmHg 93%
    21:00 +28°C° 0 mm 1 m/s 757 mmHg 93%
    22:00 +26°C° 0 mm 0 m/s 758 mmHg 93%
    23:00 +25°C° 0 mm 0 m/s 758 mmHg 94%

    Mâine, 24 Mai, Vineri

    Timp Temperatura Precipitaţii Vânt Presiune Umiditate
    00:00 +25°C° 0 mm 0 m/s 758 mmHg 95%
    01:00 +25°C° 0 mm 0 m/s 757 mmHg 95%
    02:00 +25°C° 0 mm 0 m/s 757 mmHg 96%
    03:00 +25°C° 0 mm 0 m/s 757 mmHg 96%
    04:00 +24°C° 0 mm 0 m/s 757 mmHg 96%
    05:00 +27°C° 0.1 mm 1 m/s 757 mmHg 95%
    06:00 +27°C° 0.1 mm 1 m/s 757 mmHg 94%
    07:00 +27°C° 0.1 mm 1 m/s 757 mmHg 93%
    08:00 +29°C° 0.1 mm 1 m/s 757 mmHg 84%
    09:00 +31°C° 0.1 mm 1 m/s 758 mmHg 75%
    10:00 +34°C° 0.1 mm 2 m/s 758 mmHg 66%
    11:00 +34°C° 0.8 mm 2 m/s 758 mmHg 68%
    12:00 +34°C° 0.8 mm 2 m/s 757 mmHg 71%
    13:00 +34°C° 0.8 mm 3 m/s 757 mmHg 73%
    14:00 +33°C° 1.1 mm 3 m/s 756 mmHg 75%
    15:00 +32°C° 1.1 mm 2 m/s 756 mmHg 77%
    16:00 +31°C° 1.1 mm 2 m/s 755 mmHg 79%
    17:00 +30°C° 0.7 mm 2 m/s 756 mmHg 83%
    18:00 +29°C° 0.7 mm 1 m/s 756 mmHg 87%
    19:00 +28°C° 0.7 mm 1 m/s 756 mmHg 91%
    20:00 +28°C° 0 mm 1 m/s 757 mmHg 92%
    21:00 +25°C° 0 mm 0 m/s 757 mmHg 93%
    22:00 +25°C° 0 mm 0 m/s 758 mmHg 94%
    23:00 +25°C° 1.2 mm 0 m/s 758 mmHg 94%

    Poimâine, 25 Mai, Sâmbătă

    Timp Temperatura Precipitaţii Vânt Presiune Umiditate
    00:00 +25°C° 1.2 mm 0 m/s 757 mmHg 94%
    01:00 +24°C° 1.2 mm 0 m/s 757 mmHg 95%
    02:00 +24°C° 0 mm 0 m/s 757 mmHg 95%
    03:00 +24°C° 0 mm 0 m/s 756 mmHg 95%
    04:00 +24°C° 0 mm 0 m/s 756 mmHg 96%
    05:00 +24°C° 0 mm 0 m/s 756 mmHg 95%
    06:00 +24°C° 0 mm 0 m/s 756 mmHg 94%
    07:00 +25°C° 0 mm 0 m/s 757 mmHg 94%
    08:00 +26°C° 0 mm 0 m/s 757 mmHg 88%
    09:00 +27°C° 0 mm 0 m/s 757 mmHg 82%
    10:00 +29°C° 0 mm 0 m/s 758 mmHg 76%
    11:00 +32°C° 0 mm 1 m/s 757 mmHg 71%
    12:00 +33°C° 0 mm 1 m/s 757 mmHg 65%
    13:00 +35°C° 0 mm 2 m/s 757 mmHg 60%
    14:00 +34°C° 0.6 mm 2 m/s 756 mmHg 66%
    15:00 +32°C° 0.6 mm 2 m/s 755 mmHg 73%
    16:00 +31°C° 0.6 mm 2 m/s 755 mmHg 79%
    17:00 +30°C° 0.4 mm 2 m/s 755 mmHg 83%
    18:00 +29°C° 0.4 mm 2 m/s 756 mmHg 87%
    19:00 +28°C° 0.4 mm 1 m/s 756 mmHg 91%
    20:00 +27°C° 0.3 mm 1 m/s 757 mmHg 92%
    21:00 +25°C° 0.3 mm 0 m/s 757 mmHg 92%
    22:00 +25°C° 0.3 mm 0 m/s 758 mmHg 93%
    23:00 +25°C° 1.1 mm 0 m/s 758 mmHg 94%

    26 Mai, Duminică

    Timp Temperatura Precipitaţii Vânt Presiune Umiditate
    00:00 +26°C° 1.1 mm 1 m/s 757 mmHg 94%
    01:00 +26°C° 1.1 mm 1 m/s 757 mmHg 95%
    02:00 +26°C° 0.7 mm 1 m/s 757 mmHg 95%
    03:00 +24°C° 0.7 mm 0 m/s 757 mmHg 95%
    04:00 +24°C° 0.7 mm 0 m/s 756 mmHg 96%
    05:00 +24°C° 0.1 mm 0 m/s 757 mmHg 95%
    06:00 +24°C° 0.1 mm 0 m/s 757 mmHg 95%
    07:00 +26°C° 0.1 mm 1 m/s 757 mmHg 95%
    08:00 +25°C° 0.1 mm 0 m/s 758 mmHg 90%
    09:00 +27°C° 0.1 mm 0 m/s 758 mmHg 85%
    10:00 +28°C° 0.1 mm 0 m/s 759 mmHg 80%
    11:00 +30°C° 0.8 mm 1 m/s 758 mmHg 81%
    12:00 +30°C° 0.8 mm 1 m/s 758 mmHg 81%
    13:00 +30°C° 0.8 mm 2 m/s 757 mmHg 81%
    14:00 +29°C° 1.6 mm 1 m/s 757 mmHg 86%
    15:00 +28°C° 1.6 mm 1 m/s 756 mmHg 90%
    16:00 +27°C° 1.6 mm 1 m/s 756 mmHg 95%
    17:00 +27°C° 0.1 mm 1 m/s 756 mmHg 96%
    18:00 +27°C° 0.1 mm 1 m/s 756 mmHg 96%
    19:00 +24°C° 0.1 mm 0 m/s 757 mmHg 97%
    20:00 +24°C° 0 mm 0 m/s 757 mmHg 97%
    21:00 +24°C° 0 mm 0 m/s 758 mmHg 97%
    22:00 +24°C° 0 mm 0 m/s 758 mmHg 98%
    23:00 +24°C° 0.1 mm 0 m/s 758 mmHg 98%

    27 Mai, Luni

    Timp Temperatura Precipitaţii Vânt Presiune Umiditate
    00:00 +26°C° 0.1 mm 1 m/s 758 mmHg 98%
    01:00 +26°C° 0.1 mm 1 m/s 757 mmHg 98%
    02:00 +26°C° 0 mm 1 m/s 757 mmHg 98%
    03:00 +26°C° 0 mm 1 m/s 756 mmHg 98%
    04:00 +25°C° 0 mm 1 m/s 756 mmHg 98%
    05:00 +26°C° 0.1 mm 1 m/s 756 mmHg 97%
    06:00 +26°C° 0.1 mm 1 m/s 757 mmHg 97%
    07:00 +26°C° 0.1 mm 1 m/s 757 mmHg 97%
    08:00 +27°C° 0.5 mm 1 m/s 757 mmHg 93%
    09:00 +28°C° 0.5 mm 1 m/s 758 mmHg 90%
    10:00 +29°C° 0.5 mm 1 m/s 758 mmHg 87%
    11:00 +29°C° 0.6 mm 1 m/s 758 mmHg 88%
    12:00 +28°C° 0.6 mm 2 m/s 757 mmHg 89%
    13:00 +28°C° 0.6 mm 2 m/s 757 mmHg 91%
    14:00 +28°C° 1.2 mm 2 m/s 756 mmHg 92%
    15:00 +27°C° 1.2 mm 2 m/s 756 mmHg 93%
    16:00 +27°C° 1.2 mm 2 m/s 755 mmHg 95%
    17:00 +27°C° 1 mm 2 m/s 756 mmHg 95%
    18:00 +26°C° 1 mm 2 m/s 756 mmHg 96%
    19:00 +26°C° 1 mm 1 m/s 757 mmHg 96%
    20:00 +26°C° 1 mm 1 m/s 757 mmHg 97%
    21:00 +26°C° 1 mm 1 m/s 758 mmHg 97%
    22:00 +26°C° 1 mm 1 m/s 758 mmHg 97%
    23:00 +26°C° 0.5 mm 1 m/s 758 mmHg 98%

    28 Mai, Marţi

    Timp Temperatura Precipitaţii Vânt Presiune Umiditate
    00:00 +26°C° 0.5 mm 1 m/s 757 mmHg 98%
    01:00 +26°C° 0.5 mm 1 m/s 757 mmHg 98%
    02:00 +26°C° 0.3 mm 1 m/s 757 mmHg 98%
    03:00 +26°C° 0.3 mm 1 m/s 756 mmHg 97%
    04:00 +26°C° 0.3 mm 1 m/s 756 mmHg 97%
    05:00 +26°C° 0.2 mm 1 m/s 756 mmHg 97%
    06:00 +26°C° 0.2 mm 1 m/s 757 mmHg 97%
    07:00 +26°C° 0.2 mm 1 m/s 757 mmHg 96%
    08:00 +26°C° 0.7 mm 1 m/s 757 mmHg 96%
    09:00 +26°C° 0.7 mm 1 m/s 758 mmHg 96%
    10:00 +27°C° 0.7 mm 1 m/s 758 mmHg 95%
    11:00 +27°C° 0.9 mm 1 m/s 758 mmHg 94%
    12:00 +28°C° 0.9 mm 2 m/s 757 mmHg 92%
    13:00 +28°C° 0.9 mm 2 m/s 757 mmHg 91%
    14:00 +28°C° 1.7 mm 2 m/s 756 mmHg 92%
    15:00 +27°C° 1.7 mm 1 m/s 756 mmHg 94%
    16:00 +26°C° 1.7 mm 1 m/s 755 mmHg 95%
    17:00 +26°C° 0 mm 1 m/s 756 mmHg 96%
    18:00 +26°C° 0 mm 1 m/s 756 mmHg 96%
    19:00 +26°C° 0 mm 1 m/s 757 mmHg 96%
    20:00 +26°C° 0 mm 1 m/s 757 mmHg 96%
    21:00 +26°C° 0 mm 1 m/s 758 mmHg 97%
    22:00 +26°C° 0 mm 1 m/s 758 mmHg 97%
    23:00 +26°C° 0 mm 1 m/s 758 mmHg 97%
    Arată mai mult